LHBD (Börgönd) - 119.550 - ALBA INFO - 01 LH, 19 RH - 10km SE Székesfehérvár - DROPZONE +3670624884

Élőkép

Információk

Albatrosz Repülő Egyesület
8000 Székesfehérvár,
Radványi utca 6.

Adószám:
19092908-2-07

Bankszámla szám:
Budapest Bank
10102952-01361819-00000001

Telefon: +36 30 9598-897

Drop-Zone: +36 70 624-8884

Telephey: Börgönd repülőtér

Börgöndi repülõtér

LHBP METAR/TAF

[source: ADDS]
METAR
TAF LHBP 040500Z 0406/0506 31011KT CAVOK BECMG 0413/0415 34006KT BECMG 0418/0420 VRB03KT TEMPO 0503/0506 SHRA SCT035 TAF
TAF LHBP 040500Z 0406/0506 31011KT CAVOK BECMG 0413/0415 34006KT BECMG 0418/0420 VRB03KT TEMPO 0503/0506 SHRA SCT035 =
SR / SS: 04:11 / 17:22 UTC (Börgönd 2015-09-04)
Hungarian Chinese (Simplified) Croatian Czech English Finnish French German Hebrew Italian Japanese Polish Portuguese Romanian Russian Serbian Slovak Slovenian Spanish

Belépés tagoknak